Location: Hamburg
(53.5554°N, 9.9941°E)
Time: 04:22:11
(UTC+02:00)

ISS - Pass Details

Date: 17 May 2021
Orbit: 417 x 422 km, 51.6° (Epoch: 15 June)

Event Time Altitude Azimuth Distance (km) Brightness Sun altitude
Rises 03:40:27 0° 278° (W) 2,375 -0.2 -10.8°
Reaches altitude 10° 03:43:05 10° 256° (WSW) 1,508 -1.4 -10.5°
Maximum altitude 03:45:17 16° 215° (SW) 1,173 -2.2 -10.4°
Drops below altitude 10° 03:47:30 10° 174° (S) 1,504 -1.4 -10.2°
Sets 03:50:07 0° 153° (SSE) 2,365 -0.2 -9.9°
